| time (UTC) | temp F | wind direction | speed MPH | gust MPH | rain 1hr in | rain 24hr in | rain mn in | humidity % | barometer mb |
| 20260904043105 | 49 | 90 | 1.0 | 3.0 | 0.00 | 0.00 | 0.00 | 93 | 1012.4 |
| 20260904041533 | 49 | 169 | 1.0 | 4.0 | 0.00 | 0.00 | 0.00 | 92 | 1012.4 |
| 20260904040034 | 49 | 213 | 2.0 | 4.0 | 0.00 | 0.00 | 0.00 | 92 | 1012.3 |
| 20260904034536 | 49 | 178 | 2.0 | 6.0 | 0.00 | 0.00 | 0.00 | 91 | 1012.0 |
| 20260904033033 | 49 | 157 | 1.0 | 3.0 | 0.00 | 0.00 | 0.00 | 91 | 1012.0 |
| 20260904031535 | 49 | 157 | 2.0 | 3.0 | 0.00 | 0.01 | 0.00 | 90 | 1012.0 |
| 20260904030107 | 49 | 158 | 2.0 | 4.0 | 0.00 | 0.02 | 0.00 | 89 | 1011.9 |
| 20260904013148 | 53 | 270 | 1.0 | 3.0 | 0.00 | 0.14 | 0.00 | 87 | 1011.7 |
| 20260904011606 | 53 | 268 | 1.0 | 4.0 | 0.00 | 0.14 | 0.00 | 86 | 1011.7 |
| 20260904010035 | 53 | 266 | 2.0 | 6.0 | 0.00 | 0.16 | 0.00 | 85 | 1011.5 |
| 20260904004533 | 53 | 243 | 2.0 | 5.0 | 0.00 | 0.18 | 0.00 | 84 | 1011.4 |
| 20260904003030 | 53 | 251 | 2.0 | 5.0 | 0.00 | 0.19 | 0.00 | 82 | 1011.4 |
| 20260904001607 | 54 | 296 | 2.0 | 5.0 | 0.00 | 0.19 | 0.00 | 80 | 1011.3 |
| 20260904000032 | 55 | 329 | 4.0 | 8.0 | 0.00 | 0.23 | 0.00 | 79 | 1011.4 |
| 20260903233031 | 56 | 357 | 4.0 | 7.0 | 0.00 | 0.24 | 0.00 | 78 | 1011.5 |
| 20260903231533 | 56 | 331 | 4.0 | 7.0 | 0.00 | 0.24 | 0.00 | 78 | 1011.6 |
| 20260903230032 | 57 | 337 | 4.0 | 10.0 | 0.00 | 0.25 | 0.00 | 75 | 1011.5 |
| 20260903223106 | 60 | 307 | 4.0 | 9.0 | 0.00 | 0.26 | 0.00 | 74 | 1011.5 |
| 20260903221530 | 60 | 277 | 2.0 | 7.0 | 0.00 | 0.27 | 0.00 | 78 | 1011.6 |
| 20260903220032 | 59 | 259 | 1.0 | 4.0 | 0.00 | 0.27 | 0.00 | 77 | 1011.7 |
| 20260903214532 | 59 | 304 | 2.0 | 6.0 | 0.00 | 0.28 | 0.00 | 77 | 1011.7 |
| 20260903213035 | 59 | 286 | 2.0 | 5.0 | 0.00 | 0.28 | 0.00 | 78 | 1011.7 |
| 20260903211536 | 59 | 283 | 3.0 | 7.0 | 0.00 | 0.28 | 0.00 | 78 | 1011.7 |
| 20260903210033 | 60 | 289 | 3.0 | 9.0 | 0.00 | 0.28 | 0.00 | 77 | 1011.7 |
| 20260903204533 | 60 | 308 | 5.0 | 11.0 | 0.00 | 0.30 | 0.00 | 79 | 1011.7 |
| 20260903203030 | 57 | 311 | 5.0 | 11.0 | 0.00 | 0.31 | 0.00 | 81 | 1011.8 |
| 20260903201535 | 57 | 300 | 3.0 | 8.0 | 0.00 | 0.32 | 0.00 | 80 | 1011.9 |
| 20260903200030 | 57 | 290 | 4.0 | 10.0 | 0.00 | 0.33 | 0.00 | 79 | 1011.9 |
| 20260903194643 | 59 | 329 | 5.0 | 10.0 | 0.00 | 0.33 | 0.00 | 78 | 1012.0 |
| 20260903193030 | 60 | 312 | 3.0 | 9.0 | 0.00 | 0.33 | 0.00 | 80 | 1012.2 |
| 20260903191531 | 59 | 353 | 5.0 | 9.0 | 0.00 | 0.33 | 0.00 | 81 | 1012.3 |
| 20260903190031 | 57 | 339 | 4.0 | 8.0 | 0.00 | 0.33 | 0.00 | 81 | 1012.5 |
| 20260903184531 | 55 | 15 | 4.0 | 7.0 | 0.00 | 0.33 | 0.00 | 81 | 1012.6 |
| 20260903183029 | 55 | 12 | 3.0 | 5.0 | 0.00 | 0.33 | 0.00 | 82 | 1012.6 |
| 20260903181535 | 55 | 319 | 2.0 | 6.0 | 0.00 | 0.33 | 0.00 | 84 | 1012.5 |
| 20260903180031 | 55 | 331 | 2.0 | 7.0 | 0.00 | 0.33 | 0.00 | 85 | 1012.6 |
| 20260903173035 | 53 | 346 | 4.0 | 7.0 | 0.00 | 0.33 | 0.00 | 88 | 1012.5 |
| 20260903170032 | 52 | 6 | 3.0 | 6.0 | 0.00 | 0.33 | 0.00 | 89 | 1012.6 |
| 20260903164606 | 50 | 307 | 2.0 | 6.0 | 0.00 | 0.33 | 0.00 | 91 | 1012.6 |
| 20260903161531 | 49 | 292 | 0.0 | 5.0 | 0.00 | 0.33 | 0.00 | 92 | 1012.6 |
| 20260903160105 | 49 | 332 | 0.0 | 4.0 | 0.00 | 0.33 | 0.00 | 92 | 1012.7 |
| 20260903154535 | 49 | 278 | 1.0 | 5.0 | 0.00 | 0.33 | 0.00 | 92 | 1012.6 |
| 20260903153029 | 48 | 196 | 2.0 | 5.0 | 0.00 | 0.33 | 0.00 | 92 | 1012.5 |
| 20260903150035 | 46 | 113 | 2.0 | 6.0 | 0.00 | 0.33 | 0.00 | 94 | 1012.6 |
| 20260903144606 | 46 | 175 | 3.0 | 7.0 | 0.00 | 0.33 | 0.00 | 95 | 1012.4 |
| 20260903143030 | 45 | 145 | 2.0 | 5.0 | 0.00 | 0.33 | 0.00 | 95 | 1012.3 |
| 20260903140044 | 44 | 155 | 4.0 | 7.0 | 0.00 | 0.33 | 0.00 | 94 | 1012.0 |
| 20260903134531 | 44 | 142 | 4.0 | 6.0 | 0.00 | 0.33 | 0.00 | 94 | 1012.0 |
| 20260903133106 | 44 | 133 | 2.0 | 6.0 | 0.00 | 0.33 | 0.00 | 94 | 1012.0 |
| 20260903130034 | 44 | 166 | 1.0 | 5.0 | 0.00 | 0.33 | 0.00 | 95 | 1011.9 |
| 20260903124529 | 44 | 165 | 3.0 | 8.0 | 0.00 | 0.33 | 0.00 | 95 | 1011.8 |
| 20260903121529 | 43 | 177 | 3.0 | 9.0 | 0.00 | 0.33 | 0.00 | 95 | 1011.8 |
| 20260903120034 | 44 | 185 | 5.0 | 8.0 | 0.00 | 0.33 | 0.00 | 95 | 1011.8 |
| 20260903114532 | 43 | 114 | 3.0 | 10.0 | 0.00 | 0.33 | 0.00 | 95 | 1011.8 |
| 20260903113036 | 43 | 145 | 2.0 | 4.0 | 0.00 | 0.33 | 0.00 | 95 | 1011.9 |
| 20260903110032 | 42 | 163 | 4.0 | 9.0 | 0.00 | 0.33 | 0.00 | 94 | 1011.5 |
| 20260903104532 | 42 | 145 | 4.0 | 8.0 | 0.00 | 0.33 | 0.00 | 94 | 1011.4 |
| 20260903103033 | 42 | 160 | 5.0 | 8.0 | 0.00 | 0.33 | 0.00 | 94 | 1011.3 |
| 20260903101530 | 42 | 149 | 3.0 | 6.0 | 0.00 | 0.33 | 0.00 | 94 | 1011.3 |
| 20260903100036 | 42 | 153 | 3.0 | 6.0 | 0.00 | 0.33 | 0.00 | 94 | 1011.4 |
| 20260903093036 | 42 | 179 | 3.0 | 8.0 | 0.00 | 0.33 | 0.00 | 94 | 1011.3 |
| 20260903091532 | 43 | 157 | 4.0 | 8.0 | 0.00 | 0.33 | 0.00 | 94 | 1011.3 |
| 20260903090036 | 42 | 143 | 4.0 | 7.0 | 0.00 | 0.33 | 0.00 | 93 | 1011.5 |
| 20260903084534 | 43 | 148 | 4.0 | 6.0 | 0.00 | 0.33 | 0.00 | 93 | 1011.5 |
| 20260903083036 | 43 | 158 | 4.0 | 7.0 | 0.00 | 0.33 | 0.00 | 93 | 1011.4 |
| 20260903081531 | 42 | 154 | 4.0 | 8.0 | 0.00 | 0.33 | 0.00 | 93 | 1011.4 |
| 20260903080142 | 43 | 156 | 4.0 | 6.0 | 0.00 | 0.33 | 0.00 | 93 | 1011.3 |
| 20260903074537 | 43 | 167 | 3.0 | 5.0 | 0.00 | 0.33 | 0.00 | 92 | 1011.2 |
| 20260903073036 | 43 | 171 | 3.0 | 5.0 | 0.00 | 0.33 | 0.00 | 92 | 1011.1 |
| 20260903071653 | 43 | 339 | 1.0 | 6.0 | 0.00 | 0.33 | 0.00 | 92 | 1011.1 |
| 20260903070035 | 44 | 202 | 0.0 | 4.0 | 0.00 | 0.33 | 0.00 | 91 | 1011.0 |
| 20260903063142 | 45 | 328 | 3.0 | 7.0 | 0.00 | 0.33 | 0.33 | 90 | 1011.0 |
| 20260903061536 | 46 | 167 | 3.0 | 6.0 | 0.00 | 0.33 | 0.33 | 90 | 1011.0 |
| 20260903060036 | 47 | 346 | 2.0 | 6.0 | 0.00 | 0.33 | 0.33 | 90 | 1010.9 |
| 20260903054531 | 48 | 316 | 6.0 | 12.0 | 0.00 | 0.33 | 0.33 | 90 | 1010.9 |
| 20260903053030 | 48 | 359 | 3.0 | 8.0 | 0.00 | 0.33 | 0.33 | 89 | 1010.9 |
| 20260903051537 | 49 | 352 | 3.0 | 8.0 | 0.00 | 0.33 | 0.33 | 88 | 1010.9 |